Location: Hains Lake
(37.8540°N, 99.8578°W)
Time: 03:52:44
(UTC+00:00)

Vanguard 2 Rocket - Pass Details

Date: 27 April 2021
Orbit: 553 x 3326 km, 32.9° (Epoch: 07 May)

Event Time Altitude Azimuth Distance (km) Brightness Sun altitude
Rises 20:27:20 0° 266° (W) 6,073 11.5 55.9°
Reaches altitude 10° 20:30:49 10° 265° (W) 5,348 11.5 55.4°
Maximum altitude 20:48:24 75° 184° (S) 3,348 11.0 52.5°
Drops below altitude 10° 21:08:25 10° 104° (ESE) 5,972 10.8 49.0°
Sets 21:12:35 0° 103° (ESE) 6,777 11.0 48.2°
